Regional Weather Roundup
Issued by NWS Little Rock, AR

Home | Current Version | Previous Version | Text Only | Print | Product List | Glossary On
Versions: 1 2 3 4 5 6 7 8 9 10 11 12 13 14 15 16 17 18 19 20 21 22 23 24 25 26 27 28 29 30 31 32 33 34 35 36 37 38 39 40 41 42 43 44 45 46 47 48 49 50
540
ASUS44 KLZK 251405
RWRLZK

WEATHER ROUNDUP FOR ARKANSAS
NATIONAL WEATHER SERVICE LITTLE ROCK AR
800 AM CST SUN FEB 25 2018

NOTE: "FAIR" INDICATES FEW OR NO CLOUDS BELOW 12,000 FEET WITH NO
SIGNIFICANT WEATHER AND/OR OBSTRUCTIONS TO VISIBILITY.

ARZ001-003-010-029-251500-
NORTHWEST ARKANSAS

CITY           SKY/WX    TMP DP  RH WIND       PRES   REMARKS
FAYETTEVILLE   FOG       30  30 100 CALM      30.09R VSB<1/4
FORT SMITH     LGT RAIN  35  35 100 NE7       30.11R VSB<1/4 WCI  29
HARRISON       SUNNY     32  32 100 CALM      30.08R
BENTONVILLE    SUNNY     34  33  96 CALM      30.10R FOG
ROGERS         SUNNY     32  31  96 SE3       30.08R
SILOAM SPGS    SUNNY     30  29  96 CALM      30.09R
SPRINGDALE     SUNNY     30  30 100 CALM      30.11R
$$

ARZ004-005-016-251500-
NORTH CENTRAL ARKANSAS

CITY           SKY/WX    TMP DP  RH WIND       PRES   REMARKS
BATESVILLE     PTSUNNY   40  37  89 S3        30.15R
FLIPPIN        MOSUNNY   29  28  96 NE3       30.12R FOG
MTN HOME       SUNNY     33  33 100 CALM      30.09R
$$

ARZ040-041-251500-
WEST CENTRAL ARKANSAS

CITY           SKY/WX    TMP DP  RH WIND       PRES   REMARKS
MENA             N/A     36  34  93 CALM      30.10R VSB 3/4
MOUNT IDA      PTSUNNY   38  38 100 CALM      30.09R FOG
$$

ARZ009-017-025-026-028-251500-
NORTHEAST ARKANSAS

CITY           SKY/WX    TMP DP  RH WIND       PRES   REMARKS
JONESBORO      FAIR      42  38  85 NW3       30.13R
NEWPORT          N/A     42  38  85 CALM      30.14R
WALNUT RIDGE   FAIR      42  34  73 CALM      30.14R
BLYTHEVILLE    FAIR      45  38  76 N5        30.13R
$$

ARZ022-023-033-042-044-251500-
CENTRAL ARKANSAS

CITY           SKY/WX    TMP DP  RH WIND       PRES   REMARKS
LITTLE ROCK    CLOUDY    44  39  82 NE7       30.14R
N LITTLE ROCK    N/A     42  39  89 CALM      30.10R
JACKSONVILLE   PTSUNNY   42  42  99 CALM      30.13R
SEARCY         FAIR      41  41 100 CALM      30.15R
HOT SPRINGS    CLOUDY    45  42  89 CALM      30.12R
RUSSELLVILLE   PTSUNNY   37  37 100 CALM      30.13R
CLINTON        FAIR      36  36 100 CALM      30.15R FOG
$$

ARZ036-251500-
EAST ARKANSAS

CITY           SKY/WX    TMP DP  RH WIND       PRES   REMARKS
WEST MEMPHIS   FAIR      45  39  79 N5        30.13R
$$

ARZ050-053-066-070-073-251500-
SOUTHWEST ARKANSAS

CITY           SKY/WX    TMP DP  RH WIND       PRES   REMARKS
ARKADELPHIA    FAIR      46  43  89 VRB3      30.14R
CAMDEN         FAIR      48  45  87 CALM      30.12R
TEXARKANA      PTSUNNY   47  44  90 E6        30.09R
EL DORADO      FAIR      50  50 100 N3        30.11R
DE QUEEN       MOSUNNY   39  39 100 CALM      30.10R FOG
$$

ARZ056-057-069-251500-
SOUTHEAST ARKANSAS

CITY           SKY/WX    TMP DP  RH WIND       PRES   REMARKS
PINE BLUFF     FAIR      47  39  74 NE7       30.13R
STUTTGART      FAIR      46  38  73 E7        30.14R
MONTICELLO     FAIR      50  46  86 NE3       30.11F

$$






USA.gov is the U.S. government's official web portal to all federal, state and local government web resources and services.